When you browse on this site, cookies collect data to enhance your experience and personalize the content and advertising you see.
Visit our Privacy Policy to learn more. By continuing to use the site, you agree to this use of cookies and data.
  • In Hungary
  • List of Countries
  • For 7 days
  • Water Temperature
  • Satellite Maps
  • Weather Map
  • News
  • Weather Widgets
  • user-avatar
    Login

    Hourly Weather Lawrence

    Today, 23 February, Saturday

    Time Temperature Precipitation Wind Pressure Humidity
    00:00 -1°C° 0 mm 4 mps 744 mmHg 74%
    01:00 0°C° 0 mm 4 mps 743 mmHg 74%
    02:00 0°C° 0 mm 4 mps 742 mmHg 75%
    03:00 0°C° 0 mm 4 mps 742 mmHg 76%
    04:00 0°C° 0 mm 4 mps 741 mmHg 79%
    05:00 +1°C° 0 mm 3 mps 741 mmHg 81%
    06:00 +1°C° 0 mm 3 mps 740 mmHg 84%
    07:00 +1°C° 0 mm 4 mps 740 mmHg 84%
    08:00 +3°C° 0 mm 4 mps 739 mmHg 84%
    09:00 +4°C° 0 mm 4 mps 739 mmHg 84%
    10:00 +5°C° 0 mm 4 mps 738 mmHg 83%
    11:00 +7°C° 0 mm 4 mps 738 mmHg 83%
    12:00 +8°C° 0 mm 4 mps 737 mmHg 83%
    13:00 +8°C° 0 mm 4 mps 736 mmHg 86%
    14:00 +10°C° 0 mm 4 mps 735 mmHg 89%
    15:00 +10°C° 0 mm 4 mps 734 mmHg 92%
    16:00 +10°C° 0 mm 4 mps 733 mmHg 93%
    17:00 +10°C° 0 mm 5 mps 732 mmHg 94%
    18:00 +10°C° 0 mm 5 mps 731 mmHg 95%
    19:00 +11°C° 0.3 mm 6 mps 730 mmHg 94%
    20:00 +12°C° 0.3 mm 7 mps 728 mmHg 93%
    21:00 +12°C° 0.3 mm 8 mps 727 mmHg 92%
    22:00 +13°C° 0.9 mm 8 mps 726 mmHg 90%
    23:00 +13°C° 0.9 mm 8 mps 726 mmHg 89%

    Tomorrow, 24 February, Sunday

    Time Temperature Precipitation Wind Pressure Humidity
    00:00 +15°C° 0.9 mm 8 mps 725 mmHg 87%
    01:00 +12°C° 0 mm 8 mps 724 mmHg 79%
    02:00 +11°C° 0 mm 8 mps 724 mmHg 71%
    03:00 +9°C° 0 mm 8 mps 724 mmHg 63%
    04:00 +7°C° 0 mm 9 mps 724 mmHg 66%
    05:00 +5°C° 0 mm 10 mps 724 mmHg 68%
    06:00 +3°C° 0 mm 11 mps 724 mmHg 71%
    07:00 +2°C° 0.1 mm 11 mps 725 mmHg 70%
    08:00 0°C° 0.1 mm 12 mps 726 mmHg 69%
    09:00 0°C° 0.1 mm 12 mps 728 mmHg 69%
    10:00 -1°C° 0.1 mm 12 mps 729 mmHg 67%
    11:00 -1°C° 0.1 mm 12 mps 730 mmHg 66%
    12:00 -1°C° 0.1 mm 12 mps 731 mmHg 64%
    13:00 -1°C° 0 mm 12 mps 732 mmHg 58%
    14:00 0°C° 0 mm 12 mps 733 mmHg 51%
    15:00 0°C° 0 mm 12 mps 734 mmHg 44%
    16:00 -1°C° 0 mm 11 mps 734 mmHg 47%
    17:00 -3°C° 0 mm 11 mps 735 mmHg 50%
    18:00 -4°C° 0 mm 10 mps 736 mmHg 53%
    19:00 -5°C° 0 mm 10 mps 737 mmHg 53%
    20:00 -7°C° 0 mm 10 mps 738 mmHg 54%
    21:00 -9°C° 0 mm 10 mps 739 mmHg 54%
    22:00 -9°C° 0 mm 9 mps 740 mmHg 53%
    23:00 -9°C° 0 mm 9 mps 741 mmHg 52%

    Day after tomorrow, 25 February, Monday

    Time Temperature Precipitation Wind Pressure Humidity
    00:00 -10°C° 0 mm 9 mps 742 mmHg 51%
    01:00 -10°C° 0 mm 8 mps 742 mmHg 49%
    02:00 -11°C° 0 mm 8 mps 743 mmHg 47%
    03:00 -11°C° 0 mm 7 mps 744 mmHg 45%
    04:00 -11°C° 0 mm 7 mps 744 mmHg 42%
    05:00 -12°C° 0 mm 7 mps 745 mmHg 40%
    06:00 -11°C° 0 mm 6 mps 746 mmHg 38%
    07:00 -11°C° 0 mm 6 mps 747 mmHg 36%
    08:00 -10°C° 0 mm 6 mps 748 mmHg 34%
    09:00 -10°C° 0 mm 5 mps 748 mmHg 32%
    10:00 -8°C° 0 mm 5 mps 748 mmHg 28%
    11:00 -6°C° 0 mm 5 mps 748 mmHg 24%
    12:00 -4°C° 0 mm 4 mps 748 mmHg 21%
    13:00 -3°C° 0 mm 4 mps 748 mmHg 21%
    14:00 -3°C° 0 mm 4 mps 748 mmHg 21%
    15:00 -1°C° 0 mm 3 mps 748 mmHg 21%
    16:00 -2°C° 0 mm 3 mps 748 mmHg 24%
    17:00 -3°C° 0 mm 2 mps 748 mmHg 27%
    18:00 -2°C° 0 mm 1 mps 748 mmHg 30%
    19:00 -4°C° 0 mm 2 mps 748 mmHg 31%
    20:00 -5°C° 0 mm 2 mps 748 mmHg 32%
    21:00 -5°C° 0 mm 2 mps 749 mmHg 33%
    22:00 -5°C° 0 mm 2 mps 749 mmHg 32%
    23:00 -5°C° 0 mm 2 mps 749 mmHg 32%

    26 February, Tuesday

    Time Temperature Precipitation Wind Pressure Humidity
    00:00 -5°C° 0 mm 2 mps 749 mmHg 32%
    01:00 -5°C° 0 mm 2 mps 749 mmHg 32%
    02:00 -5°C° 0 mm 2 mps 749 mmHg 33%
    03:00 -5°C° 0 mm 2 mps 748 mmHg 33%
    04:00 -6°C° 0 mm 2 mps 749 mmHg 34%
    05:00 -6°C° 0 mm 2 mps 749 mmHg 35%
    06:00 -7°C° 0 mm 3 mps 749 mmHg 35%
    07:00 -6°C° 0 mm 3 mps 749 mmHg 34%
    08:00 -5°C° 0 mm 3 mps 749 mmHg 33%
    09:00 -4°C° 0 mm 3 mps 749 mmHg 31%
    10:00 -2°C° 0 mm 3 mps 749 mmHg 30%
    11:00 0°C° 0 mm 3 mps 748 mmHg 29%
    12:00 +2°C° 0 mm 3 mps 748 mmHg 28%
    13:00 +3°C° 0 mm 3 mps 747 mmHg 31%
    14:00 +4°C° 0 mm 3 mps 746 mmHg 34%
    15:00 +5°C° 0 mm 4 mps 745 mmHg 36%
    16:00 +4°C° 0 mm 3 mps 744 mmHg 44%
    17:00 +2°C° 0 mm 3 mps 744 mmHg 51%
    18:00 +1°C° 0 mm 3 mps 744 mmHg 58%
    19:00 +1°C° 0 mm 3 mps 743 mmHg 61%
    20:00 0°C° 0 mm 3 mps 743 mmHg 64%
    21:00 0°C° 0 mm 3 mps 743 mmHg 66%
    22:00 0°C° 0 mm 3 mps 743 mmHg 70%
    23:00 0°C° 0 mm 3 mps 742 mmHg 74%

    27 February, Wednesday

    Time Temperature Precipitation Wind Pressure Humidity
    00:00 -1°C° 0 mm 3 mps 742 mmHg 78%
    01:00 0°C° 0 mm 3 mps 741 mmHg 81%
    02:00 0°C° 0 mm 3 mps 741 mmHg 84%
    03:00 0°C° 0 mm 3 mps 740 mmHg 87%
    04:00 0°C° 0 mm 3 mps 740 mmHg 89%
    05:00 0°C° 0 mm 3 mps 740 mmHg 90%
    06:00 0°C° 0 mm 3 mps 740 mmHg 92%
    07:00 +2°C° 0 mm 3 mps 740 mmHg 88%
    08:00 +4°C° 0 mm 4 mps 740 mmHg 84%
    09:00 +5°C° 0 mm 4 mps 740 mmHg 80%
    10:00 +5°C° 0.1 mm 4 mps 740 mmHg 85%
    11:00 +4°C° 0.1 mm 4 mps 739 mmHg 89%
    12:00 +4°C° 0.1 mm 3 mps 739 mmHg 94%
    13:00 +4°C° 0 mm 3 mps 739 mmHg 91%
    14:00 +4°C° 0 mm 3 mps 739 mmHg 88%
    15:00 +4°C° 0 mm 4 mps 739 mmHg 85%
    16:00 +3°C° 0 mm 4 mps 740 mmHg 84%
    17:00 0°C° 0 mm 4 mps 740 mmHg 83%
    18:00 -1°C° 0 mm 4 mps 740 mmHg 82%
    19:00 -2°C° 0 mm 4 mps 741 mmHg 82%
    20:00 -3°C° 0 mm 4 mps 741 mmHg 81%
    21:00 -3°C° 0 mm 4 mps 742 mmHg 81%
    22:00 -4°C° 0 mm 4 mps 742 mmHg 79%
    23:00 -5°C° 0 mm 4 mps 742 mmHg 78%

    28 February, Thursday

    Time Temperature Precipitation Wind Pressure Humidity
    00:00 -7°C° 0 mm 4 mps 742 mmHg 76%
    01:00 -7°C° 0 mm 4 mps 742 mmHg 74%
    02:00 -6°C° 0 mm 3 mps 742 mmHg 72%
    03:00 -6°C° 0 mm 3 mps 742 mmHg 70%
    04:00 -6°C° 0 mm 3 mps 743 mmHg 69%
    05:00 -7°C° 0 mm 3 mps 743 mmHg 68%
    06:00 -7°C° 0 mm 3 mps 743 mmHg 67%
    07:00 -6°C° 0 mm 3 mps 743 mmHg 62%
    08:00 -5°C° 0 mm 3 mps 743 mmHg 57%
    09:00 -4°C° 0 mm 3 mps 744 mmHg 52%
    10:00 -2°C° 0 mm 2 mps 743 mmHg 48%
    11:00 -1°C° 0 mm 2 mps 743 mmHg 43%
    12:00 -1°C° 0 mm 2 mps 743 mmHg 39%
    13:00 -1°C° 0 mm 2 mps 742 mmHg 45%
    14:00 -1°C° 0 mm 3 mps 742 mmHg 51%
    15:00 -1°C° 0 mm 3 mps 742 mmHg 57%
    16:00 -2°C° 0.5 mm 3 mps 742 mmHg 67%
    17:00 -4°C° 0.5 mm 3 mps 742 mmHg 76%
    18:00 -5°C° 0.5 mm 3 mps 742 mmHg 86%
    19:00 -4°C° 0 mm 3 mps 742 mmHg 85%
    20:00 -4°C° 0 mm 3 mps 741 mmHg 84%
    21:00 -4°C° 0 mm 3 mps 741 mmHg 83%
    22:00 -5°C° 0 mm 3 mps 741 mmHg 84%
    23:00 -4°C° 0 mm 2 mps 741 mmHg 85%
    Show more